Location: Prague
(50.0833°N, 14.4667°E)
Time: 14:55:56
(UTC+01:00)

ISS - All Passes

Search period start: 29 January 2020 00:00
Search period end: 08 February 2020 00:00
Orbit: 415 x 423 km, 51.6° (Epoch: 29 January)

Date Brightness Start Highest point End Pass type
(mag) Time Alt. Az. Time Alt. Az. Time Alt. Az.
29 Jan - 16:05:24 10° SW 16:08:31 36° SSE 16:11:40 10° E daylight
29 Jan - 17:41:48 10° W 17:45:12 77° NNW 17:48:36 10° ENE visible
29 Jan - 19:18:46 10° WNW 19:22:10 71° N 19:25:32 10° E visible
29 Jan - 20:55:39 10° WNW 20:58:54 45° SSW 21:02:09 10° SE visible
29 Jan - 22:34:44 10° SW 22:35:03 10° SW 22:35:21 10° SW night (unlit)
30 Jan - 15:18:14 10° SSW 15:21:05 25° SE 15:23:56 10° E daylight
30 Jan - 16:54:13 10° WSW 16:57:37 88° SSE 17:01:01 10° ENE daylight
30 Jan - 18:31:11 10° W 18:34:33 65° N 18:37:55 10° E visible
30 Jan - 20:08:02 10° WNW 20:11:24 63° SSW 20:14:44 10° ESE visible
30 Jan - 21:45:38 10° W 21:47:43 15° SW 21:49:47 10° S night (unlit)
31 Jan - 14:31:21 10° S 14:33:40 17° SE 14:36:01 10° E daylight
31 Jan - 16:06:40 10° WSW 16:10:02 69° SSE 16:13:25 10° ENE daylight
31 Jan - 17:43:32 10° W 17:46:55 65° N 17:50:17 10° E visible
31 Jan - 19:20:26 10° WNW 19:23:51 82° SSW 19:27:13 10° ESE visible
31 Jan - 20:57:36 10° W 21:00:19 22° SW 21:03:01 10° SSE visible
01 Feb - 13:45:02 10° SSE 13:46:19 12° SE 13:47:35 10° ESE daylight
01 Feb - 15:19:12 10° SW 15:22:30 50° SSE 15:25:48 10° ENE daylight
01 Feb - 16:55:54 10° W 16:59:17 69° N 17:02:40 10° ENE daylight
01 Feb - 18:32:51 10° WNW 18:36:15 81° NNE 18:39:38 10° ESE visible
01 Feb - 20:09:48 10° W 20:12:52 32° SSW 20:15:55 10° SSE visible
02 Feb - 14:31:51 10° SW 14:34:59 36° SSE 14:38:08 10° E daylight
02 Feb - 16:08:15 10° W 16:11:39 78° NNW 16:15:03 10° ENE daylight
02 Feb - 17:45:13 10° WNW 17:48:37 71° N 17:52:00 10° E visible
02 Feb - 19:22:07 10° WNW 19:25:22 45° SSW 19:28:37 10° SE visible
02 Feb - 21:01:06 10° SW 21:01:30 10° SW 21:01:53 10° SW visible
03 Feb - 13:44:39 10° SSW 13:47:30 25° SE 13:50:21 10° E daylight
03 Feb - 15:20:37 10° WSW 15:24:01 88° SSE 15:27:25 10° ENE daylight
03 Feb - 16:57:35 10° W 17:00:57 65° N 17:04:20 10° E daylight
03 Feb - 18:34:27 10° WNW 18:37:48 63° SSW 18:41:09 10° ESE visible
03 Feb - 20:12:01 10° W 20:14:07 16° SW 20:16:12 10° S visible
04 Feb - 12:57:44 10° S 13:00:03 17° SE 13:02:22 10° E daylight
04 Feb - 14:33:02 10° WSW 14:36:25 69° SSE 14:39:48 10° ENE daylight
04 Feb - 16:09:54 10° W 16:13:17 65° N 16:16:40 10° E daylight
04 Feb - 17:46:48 10° WNW 17:50:12 83° SSW 17:53:36 10° ESE visible
04 Feb - 19:23:58 10° W 19:26:41 23° SW 19:29:23 10° SSE visible
05 Feb - 12:11:23 10° SSE 12:12:38 12° SE 12:13:53 10° ESE daylight
05 Feb - 13:45:31 10° SW 13:48:49 50° SSE 13:52:08 10° ENE daylight
05 Feb - 15:22:13 10° W 15:25:36 69° N 15:28:59 10° ENE daylight
05 Feb - 16:59:10 10° WNW 17:02:34 81° NNE 17:05:58 10° ESE daylight
05 Feb - 18:36:07 10° W 18:39:11 32° SSW 18:42:15 10° SSE visible
06 Feb - 12:58:08 10° SW 13:01:16 35° SSE 13:04:25 10° E daylight
06 Feb - 14:34:32 10° W 14:37:55 78° NNW 14:41:19 10° ENE daylight
06 Feb - 16:11:30 10° WNW 16:14:53 70° N 16:18:17 10° E daylight
06 Feb - 17:48:22 10° WNW 17:51:39 46° SSW 17:54:53 10° SE visible
06 Feb - 19:27:17 10° SW 19:27:46 10° SW 19:28:15 10° SW visible
07 Feb - 12:10:55 10° SSW 12:13:44 25° SE 12:16:35 10° E daylight
07 Feb - 13:46:51 10° WSW 13:50:16 87° SSE 13:53:39 10° ENE daylight
07 Feb - 15:23:49 10° W 15:27:12 65° N 15:30:34 10° E daylight
07 Feb - 17:00:41 10° WNW 17:04:03 63° SSW 17:07:23 10° ESE daylight
07 Feb - 18:38:15 10° W 18:40:21 16° SW 18:42:27 10° S visible
